CZ-6A DEB, 54517

Orbit data source: Space-Track

CZ-6A DEB, 54517 is space debris in SSO originally from a launch on Fri, 11 Nov 2022 UTC launched from the Taiyaun Space Center, China (TSC). Debris objects in space refer to the collection of defunct objects orbiting the Earth. Examples of debris include non-operational satellites, rocket bodies, and fragments generated from explosions, collisions, or faulty payload assembly.

Loading next visibility...
Identifier
54517, 2022-151JV
Orbit
SSO
Country
Flag of CNCN / PRC
Related business
Manufacturer
SAST
Mission
Spacecraft
Bus & Motor
Unknown
Mass
Unknown
Launch date (UTC)
2022-11-11 (4 years ago)
Launch vehicle
Unknown
Launch site
Taiyaun Space Center, China (TSC)
Object type
Payload
Rocket body
Debris
Shape & HBR
Unknown shape, 0.1 m
Radar Cross Section
Medium (>0.1 m² and <1 m²)

Expand to show TLE details & history
Last TLE update: 2 days ago

TLE from 2 days ago
0 CZ-6A DEB
1 54517U 22151JV  26171.18460651  .00010374  00000-0  14250-2 0  9990
2 54517  98.6270 242.7894 0065580 256.9409 102.4473 14.77070334190930
Epoch: 2026-06-20T04:25Z
TLE epoch observation values (Epoch: 2026-06-20T04:25:50.002Z)
Latitude
-0.00002°
Longitude
-92.07181°
Altitude
651.789 km
Speed
7.526 km/s
True Right ascension
16h 11m 09s
True Declination
0° 00' 00"
Sunlit
Object was in full shadow at epoch
Visualization orbit readout
Latitude
Unknown
Longitude
Unknown
Altitude
Unknown
Speed
Unknown
Apparent Right ascension
Unknown
Apparent Declination
Unknown
Sunlit
N/A
Visualization observer readout
Local Sidereal Time
21:36:18
Azimuth
Unknown
Elevation
Unknown
Doppler factor
Unknown
Orbital elements
Apogee altitude
681.662 km
Perigee altitude
589.669 km
Semi-major axis
7,013.802 km
Eccentricity
0.00656
Inclination
98.627°
RAAN
242.7894°
Arg. of periapsis
256.9409°
True anomaly
103.17981°
Mean anomaly
102.4473°
Eccentric anomaly
102.81369°
Mean motion
3.69499 °/min
Orbital period
97.43 mins
BSTAR
0.001425
Loading maneuver chart data...
Computing Atmospheric mass density...
Loading historical data...
Loading historical data...
Loading historical data...
Loading historical data...
Loading historical data...
Loading historical data...
Loading historical data...

Documentation

Showing up to 5 results
|